Air Quality Table

TIMESTAMP NO2 SO2 PM10 PM2.5 CO TEMP HUM AIRPRES WS WD NO
2022-08-20 00:00 0 µg/m3 1.93 µg/m3 N/A N/A N/A 27.04 °C 70.48 % 1,010.52 mbar 4.46 m/s 289.33 Deg 0 µg/m3
2022-08-19 23:00 0 µg/m3 1.86 µg/m3 N/A N/A N/A 27.46 °C 67.16 % 1,010.31 mbar 5.04 m/s 279.84 Deg 0 µg/m3
2022-08-19 22:00 0 µg/m3 1.93 µg/m3 N/A N/A N/A 27.77 °C 64.46 % 1,010.08 mbar 3.8 m/s 282.18 Deg 0 µg/m3
2022-08-19 21:00 0 µg/m3 1.76 µg/m3 N/A N/A N/A 28.21 °C 61.45 % 1,009.94 mbar 4.85 m/s 271.2 Deg 0 µg/m3
2022-08-19 20:00 0 µg/m3 1.63 µg/m3 N/A N/A N/A 28.4 °C 60.44 % 1,009.53 mbar 4.76 m/s 277.99 Deg 0 µg/m3
2022-08-19 19:00 0 µg/m3 1.58 µg/m3 N/A N/A N/A 29.38 °C 49.9 % 1,008.78 mbar 4.87 m/s 268.93 Deg 0 µg/m3
2022-08-19 18:00 0 µg/m3 1.71 µg/m3 N/A N/A N/A 30.32 °C 43.87 % 1,008.71 mbar 3.88 m/s 266.39 Deg 0 µg/m3
2022-08-19 17:00 0 µg/m3 1.96 µg/m3 N/A N/A N/A 29.94 °C 53.46 % 1,009.02 mbar 3.74 m/s 290.72 Deg 0 µg/m3
2022-08-19 16:00 0 µg/m3 1.75 µg/m3 N/A N/A N/A 30.4 °C 61.78 % 1,008.88 mbar 2.76 m/s 322.1 Deg 0 µg/m3
2022-08-19 15:00 0 µg/m3 2.07 µg/m3 N/A N/A N/A 30.63 °C 64.51 % 1,008.79 mbar 2.81 m/s 327.93 Deg 0 µg/m3
2022-08-19 14:00 0 µg/m3 2.01 µg/m3 N/A N/A N/A 30.96 °C 69.13 % 1,009.00 mbar 2.61 m/s 286.64 Deg 0 µg/m3
2022-08-19 13:00 0 µg/m3 2.77 µg/m3 N/A N/A N/A 30.33 °C 72.71 % 1,009.06 mbar 2.06 m/s 299.63 Deg 0 µg/m3
2022-08-19 12:00 0 µg/m3 2.11 µg/m3 N/A N/A N/A 30.62 °C 73.98 % 1,009.16 mbar 0.88 m/s 205.65 Deg 0 µg/m3
2022-08-19 11:00 0 µg/m3 1.95 µg/m3 N/A N/A N/A 30.48 °C 75.18 % 1,009.63 mbar 1.35 m/s 318.98 Deg 0 µg/m3
2022-08-19 10:00 0 µg/m3 1.03 µg/m3 N/A N/A N/A 30.21 °C 76.96 % 1,009.54 mbar 1.9 m/s 331.98 Deg 0 µg/m3
2022-08-19 09:00 0 µg/m3 2.54 µg/m3 N/A N/A N/A 29.89 °C 77.44 % 1,009.55 mbar 2.42 m/s 251.28 Deg 0 µg/m3
2022-08-19 08:00 0 µg/m3 2.94 µg/m3 N/A N/A N/A 29.58 °C 81.21 % 1,009.02 mbar 1.9 m/s 298.59 Deg 0 µg/m3
2022-08-19 07:00 0 µg/m3 3.17 µg/m3 N/A N/A N/A 28.47 °C 84.58 % 1,008.83 mbar 2.33 m/s 214.1 Deg 0 µg/m3
2022-08-19 06:00 0 µg/m3 3.52 µg/m3 N/A N/A N/A 28.44 °C 85.46 % 1,008.43 mbar 1.5 m/s 192.73 Deg 0 µg/m3
2022-08-19 05:00 0 µg/m3 3.35 µg/m3 N/A N/A N/A 28.47 °C 82.91 % 1,008.29 mbar 1.27 m/s 190.12 Deg 0 µg/m3
2022-08-19 04:00 0 µg/m3 3.11 µg/m3 N/A N/A N/A 28.82 °C 78.82 % 1,007.94 mbar 2.55 m/s 213.54 Deg 0 µg/m3
2022-08-19 03:00 0 µg/m3 2.55 µg/m3 N/A N/A N/A 29.37 °C 74.03 % 1,007.89 mbar 0.7 m/s 228.09 Deg 0 µg/m3

It is to be noted that the data is provisional and subject to quality assurance procedures. For validated data kindly refer your request to contact.air@era.org.mt